This is the latest recevied weather packets stored in our database for station/object N4MGC. If no packets are shown the sender has not sent any weather packets the latest 10 day(s).
| Time | Temp. | Humidity | Pressure | Rain* | Wind** | Luminosity | Snow |
|---|---|---|---|---|---|---|---|
| 1777559400 | 16.11° C | 76% | 1014.6 hPa | 0 mm | - | 235 W/m² | - |
| 1777558184 | 15.56° C | 82% | 1014.7 hPa | 0 mm | - | 220 W/m² | - |
| 1777557880 | 15° C | 83% | 1014.5 hPa | 0 mm | - | 176 W/m² | - |
| 1777557273 | 15° C | 87% | 1014.3 hPa | 0 mm | - | 144 W/m² | - |
| 1777556665 | 15° C | 88% | 1014.5 hPa | 0 mm | - | 99 W/m² | - |
| 1777556057 | 14.44° C | 90% | 1014.2 hPa | 0 mm | - | 95 W/m² | - |
| 1777555756 | 14.44° C | 92% | 1014.2 hPa | 0 mm | - | 78 W/m² | - |
| 1777555453 | 13.89° C | 91% | 1014 hPa | 0 mm | - | 102 W/m² | - |
| 1777554240 | 13.89° C | 94% | 1014.5 hPa | 0 mm | - | 90 W/m² | - |
| 1777553330 | 13.33° C | 97% | 1014.2 hPa | 0 mm | - | 68 W/m² | - |
| 1777551812 | 12.78° C | 99% | 1014 hPa | 0 mm | - | 59 W/m² | - |
| 1777549081 | 13.33° C | 99% | 1013.1 hPa | 0 mm | - | 12 W/m² | - |
| 1777548474 | 13.33° C | 99% | 1013.3 hPa | 0 mm | - | 9 W/m² | - |
| 1777547867 | 13.89° C | 99% | 1012.8 hPa | 0 mm | - | 3 W/m² | - |
| 1777546655 | 13.89° C | 99% | 1012.6 hPa | 0 mm | - | 0 W/m² | - |
| 1777546048 | 14.44° C | 99% | 1012.7 hPa | 0 mm | - | 0 W/m² | - |
| 1777545441 | 14.44° C | 99% | 1012.4 hPa | 0 mm | - | 0 W/m² | - |
| 1777545138 | 14.44° C | 99% | 1012.4 hPa | 0 mm | - | 0 W/m² | - |
| 1777544836 | 14.44° C | 99% | 1012.7 hPa | 0 mm | - | 0 W/m² | - |
| 1777544532 | 15° C | 99% | 1012.7 hPa | 0 mm | - | 0 W/m² | - |
| 1777544228 | 15° C | 99% | 1013 hPa | 1.78 mm | - | 0 W/m² | - |
| 1777543926 | 15° C | 99% | 1012.7 hPa | 1.78 mm | - | 0 W/m² | - |
| 1777543622 | 15° C | 99% | 1013 hPa | 0 mm | - | 0 W/m² | - |
| 1777543014 | 15° C | 99% | 1011.9 hPa | 0 mm | - | 0 W/m² | - |
| 1777542407 | 15° C | 99% | 1012.8 hPa | 6.1 mm | - | 0 W/m² | - |
* Rain latest hour (hover to see other rain measurements)
** Current wind speed in m/s (hover to see current wind gust speed)